一网星座-0159星 (ONEWEB-0159 )

导读 | 豆包AI

ONEWEB-0159是英国一网公司(OneWeb)低轨宽带卫星星座的组成卫星,于北京时间2021年3月25日发射入轨,运行在约1200公里高度的近地轨道。作为OneWeb全球互联网星座的一员,它承担着为全球偏远地区、基础设施薄弱区域提供低成本高速互联网接入的任务,采用Ku波段提供用户通信服务,单星可产生多个通信波束,是OneWeb构建全球覆盖低轨通信网络的重要节点,助力填补全球数字鸿沟,推动泛在互联实现。

基本信息
目录编号:
48062
目录名称:
ONEWEB-0159
国际标识:
2021-025W
轨道中心:
EARTH
卫星名称:
一网星座-0159星
卫星全名:
一网星座-0159星 (ONEWEB-0159 )
卫星状态:
在轨 (已飞行1815 天)
发射日期:
2021-03-25 UTC
国别 :
英国 (GB)
星等 :
--
轨道信息
数据来源 国际轨道数据
星历时间: 2026-03-14T07:15:18+0800
10小时前
查看轨道信息
半长轴: 7587.906km
偏心率: 0.0001903
轨道倾角: 87.904°
近地点辐角 72.672°
升交点赤经 339.151°
平近点角 287.462°
近地点: 1208.325km
远地点: 1211.213km
周期: 109.633分钟
每日圈数: 13.134693
详细信息
平衡模式:
三轴稳定
覆盖范围:
全球
运营商:
一网卫星公司
运营商所在国:
英国
制造商(研发单位):
一网卫星公司
制造商所在国:
英国
使用方式:
暂无
卫星简介
OneWeb卫星网络由648颗重约125公斤的微型卫星组成,运行在1200公里的轨道上。 每颗卫星都能够提供至少每秒8千兆位的吞吐量,以使用其高吞吐量的Ku频段有效载荷为家庭和移动平台提供互联网接入。该卫星仍在工作。
2D轨道图
3D轨道图
轨道高度分析图
轨道倾角分析图
轨道综合分析图
查看轨道综合分析图